Weather History for KFST - November, 2012

Change the Weather History Date:

Friday, November 9, 2012

  Actual Average (WUND) Record (WUND)
Temperature  
Mean Temperature 70 °F -  
Max Temperature 84 °F - - (-1)
Min Temperature 55 °F - - (-1)
Cooling Degree Days 4    
Growing Degree Days 20 (Base 50)    
Moisture  
Dew Point 48 °F    
Average Humidity 50    
Maximum Humidity 72    
Minimum Humidity 20    
Precipitation  
Precipitation 0.00 in - - ()
Sea Level Pressure  
Sea Level Pressure 29.83 in    
Wind  
Wind Speed 10 mph (SSE)    
Max Wind Speed 21 mph    
Max Gust Speed 29 mph    
Visibility 10 miles    
Events      
Averages and records for this station are not official NWS values.
T = Trace of Precipitation, MM = Missing Value Source: NWS Daily Summary

Daily Weather History Graph

Daily Weather History Graph

Search for Another Location

Airport or City:

Trip Planner

Search our weather history database for the weather conditions in past years. The results will help you decide how hot, cold, wet, or windy it might be!

Date:

Astronomy

Nov. 09, 2012 Rise Set
Actual Time 7:13 AM CST 5:56 PM CST
Civil Twilight 6:48 AM CST 6:22 PM CST
Nautical Twilight 6:19 AM CST 6:51 PM CST
Astronomical Twilight 5:50 AM CST 7:19 PM CST
Moon 2:33 AM CST (11/9) 2:55 PM CST (11/9)
Length of Visible Light 11h 33m
Length of Day
10h 43m
Waning Crescent, 23% of the Moon is Illuminated
Nov 9
Waning Crescent
Nov 13
New
Nov 20
First Quarter
Nov 28
Full
Dec 6
Last Quarter

Hourly Weather History & Observations

Time (CST) Temp. Dew Point Humidity Pressure Visibility Wind Dir Wind Speed Gust Speed Precip Events Conditions
12:53 AM 64.0 °F 50.0 °F 60% 29.84 in 10.0 mi South 10.4 mph - N/A   Clear
1:53 AM 63.0 °F 50.0 °F 63% 29.84 in 10.0 mi South 9.2 mph - N/A   Clear
2:53 AM 61.0 °F 50.0 °F 67% 29.83 in 10.0 mi SSE 6.9 mph - N/A   Clear
3:53 AM 57.0 °F 48.0 °F 72% 29.86 in 10.0 mi Calm Calm - N/A   Clear
4:53 AM 57.9 °F 48.0 °F 70% 29.85 in 10.0 mi SSE 9.2 mph - N/A   Clear
5:53 AM 57.0 °F 44.1 °F 62% 29.87 in 10.0 mi South 9.2 mph - N/A   Clear
6:53 AM 57.0 °F 44.1 °F 62% 29.88 in 10.0 mi South 5.8 mph - N/A   Clear
7:53 AM 55.9 °F 45.0 °F 67% 29.91 in 10.0 mi South 10.4 mph - N/A   Clear
8:53 AM 63.0 °F 50.0 °F 63% 29.91 in 10.0 mi SSE 8.1 mph - N/A   Clear
9:53 AM 72.0 °F 48.0 °F 43% 29.90 in 10.0 mi SSE 10.4 mph - N/A   Clear
10:53 AM 77.0 °F 45.0 °F 32% 29.90 in 10.0 mi SE 6.9 mph - N/A   Clear
11:53 AM 80.1 °F 41.0 °F 25% 29.87 in 10.0 mi East 8.1 mph - N/A   Clear
12:53 PM 82.9 °F 37.9 °F 20% 29.83 in 10.0 mi ESE 8.1 mph - N/A   Clear
1:53 PM 82.9 °F 42.1 °F 24% 29.80 in 10.0 mi SE 11.5 mph - N/A   Clear
2:53 PM 84.0 °F 44.1 °F 25% 29.77 in 10.0 mi ESE 17.3 mph 24.2 mph N/A   Clear
3:53 PM 81.0 °F 48.0 °F 31% 29.77 in 10.0 mi ESE 17.3 mph 28.8 mph N/A   Partly Cloudy
4:53 PM 81.0 °F 45.0 °F 28% 29.75 in 10.0 mi SE 16.1 mph 26.5 mph N/A   Mostly Cloudy
5:53 PM 77.0 °F 46.9 °F 34% 29.76 in 10.0 mi SE 18.4 mph 27.6 mph N/A   Partly Cloudy
6:53 PM 72.0 °F 52.0 °F 49% 29.79 in 10.0 mi SSE 19.6 mph 24.2 mph N/A   Clear
7:53 PM 69.1 °F 55.0 °F 61% 29.81 in 10.0 mi SSE 16.1 mph 25.3 mph N/A   Clear
8:53 PM 68.0 °F 55.9 °F 65% 29.81 in 10.0 mi SE 18.4 mph 26.5 mph N/A   Clear
9:53 PM 66.9 °F 55.0 °F 66% 29.79 in 10.0 mi SSE 20.7 mph 27.6 mph N/A   Clear
11:53 PM 66.0 °F 53.1 °F 63% 29.77 in 10.0 mi SSE 16.1 mph 23.0 mph N/A   Clear